Location: Unspecified
(43.4354°N, 0.0000°E)
Time: 12:25:53
(UTC+00:00)

Transit 2A - Pass Details

Date: 20 June 2019
Orbit: 594 x 964 km, 66.7° (Epoch: 19 July)

Event Time Altitude Azimuth Distance (km) Brightness Sun altitude
Rises 01:30:54 0° 228° (SW) 3,618 - -20.0°
Reaches altitude 10° 01:33:32 10° 233° (SW) 2,690 - -19.9°
Exits shadow 01:36:04 24° 244° (WSW) 1,869 7.6 -19.7°
Maximum altitude 01:39:42 50° 308° (NW) 1,214 7.1 -19.4°
Drops below altitude 10° 01:45:46 10° 23° (NNE) 2,654 10.0 -19.0°
Sets 01:48:22 0° 29° (NNE) 3,565 11.2 -18.8°
